Theta_e
316 317 319 318 319 319 318 318 317 317 316 316 317 317 317 318 317 317 317 316 316 315 315 311 307 305 302 300 299 296 295 294 294 293 292 292 292 292 291 290 289 288 288 287
317 317 318 317 318 318 318 318 317 318 317 314 316 317 317 317 317 316 316 315 315 315 315 312 308 305 301 299 297 296 295 295 293 293 293 293 293 292 291 290 289 288 287 286
317 316 315 316 317 317 316 317 317 317 317 312 313 315 316 315 315 314 314 314 314 314 315 312 308 304 301 298 297 296 295 294 293 293 293 291 291 290 289 289 289 288 287 286
315 315 315 315 315 315 317 316 317 318 318 318 313 317 317 316 316 315 315 315 315 315 314 312 308 304 301 298 297 295 295 294 293 292 292 291 290 291 291 291 289 288 286 285
314 316 315 316 316 315 316 311 314 316 317 317 316 317 316 314 314 313 314 314 315 315 312 309 307 304 301 298 297 295 294 293 293 292 291 291 291 291 291 289 288 287 286 285
314 310 313 315 310 311 310 312 313 312 314 318 316 317 316 316 313 313 312 312 314 312 310 308 306 303 301 299 297 295 294 293 293 292 291 290 290 291 290 289 288 287 286 285
316 315 313 310 313 309 311 315 318 323 322 321 317 317 316 315 313 313 313 313 313 311 309 308 306 303 301 299 296 295 294 293 292 291 291 290 290 290 289 288 287 287 286 285
318 317 315 310 314 317 312 316 321 325 321 320 316 316 315 315 314 313 312 313 311 309 309 308 306 304 301 298 296 295 294 294 292 291 290 290 289 289 288 287 286 285 284 284
315 315 308 309 308 313 313 314 315 320 321 321 315 315 316 314 313 312 312 310 311 309 308 307 306 303 301 298 296 295 294 294 292 291 290 289 288 287 286 285 284 283 283 282
314 316 312 304 305 306 310 310 315 315 322 320 317 320 320 318 315 313 311 311 311 312 310 307 305 303 301 299 296 295 294 294 293 291 290 289 287 286 285 284 283 282 281 281
314 315 313 306 308 312 307 310 309 310 316 321 321 318 314 314 315 314 313 311 311 313 310 308 305 302 300 299 296 295 294 293 292 291 289 288 286 285 284 282 281 281 280 279
312 316 316 315 311 305 309 313 313 314 315 313 315 316 311 313 312 313 312 311 312 311 311 310 307 303 300 298 297 295 294 293 292 290 289 287 285 283 282 281 280 280 279 278
311 314 318 316 310 304 308 309 309 312 312 314 317 315 312 312 313 310 309 310 310 309 309 310 307 304 301 298 297 295 294 293 291 290 288 285 283 281 280 280 279 278 278 278
310 314 315 314 313 311 312 310 310 310 314 314 313 313 313 312 313 313 312 311 311 311 309 308 307 304 301 299 296 294 293 292 290 288 285 283 281 280 279 279 278 278 277 276
311 313 313 313 312 311 311 311 310 310 311 312 313 312 313 313 313 313 311 311 310 309 308 308 305 306 302 298 295 293 292 291 288 285 283 281 280 279 278 278 277 276 276 275
310 313 312 313 312 312 312 312 312 312 312 312 311 311 310 310 310 310 310 310 310 309 309 307 306 304 299 296 294 292 291 289 285 283 281 280 278 278 277 277 276 275 274 274
310 311 313 314 314 314 315 314 313 312 312 312 313 313 314 314 312 312 312 311 311 310 308 306 306 304 298 295 292 290 289 285 282 281 280 278 277 277 276 275 274 274 273 273
310 310 313 315 314 315 314 312 312 313 313 313 314 313 313 312 312 311 311 311 310 307 306 306 306 305 298 294 291 288 285 282 280 279 278 277 276 275 275 274 273 273 273 273
311 312 313 315 315 314 313 312 312 313 313 312 312 312 312 311 310 310 310 309 308 308 307 302 300 300 295 291 288 285 281 280 279 278 277 276 275 274 273 272 272 272 272 272
311 311 313 314 316 317 313 312 311 311 312 311 310 311 310 310 311 310 309 307 306 297 296 294 292 291 290 287 284 281 279 279 279 278 276 274 274 273 272 272 272 272 271 271
312 311 313 314 315 315 312 311 310 314 313 310 309 309 310 310 310 310 303 301 298 296 292 290 288 288 287 283 280 280 279 279 278 276 274 273 272 272 272 271 271 270 270 270
315 314 313 313 314 315 311 311 311 312 311 311 311 310 309 308 308 307 307 301 295 292 288 287 285 283 280 280 280 279 278 278 275 274 272 271 271 270 270 270 269 269 269 269
315 314 314 313 313 310 310 310 311 311 311 311 310 310 309 307 306 305 303 298 294 292 287 284 283 281 279 279 280 279 277 273 272 271 270 270 270 270 269 268 269 269 269 270
302 303 304 303 308 304 304 304 306 309 309 307 306 305 305 306 305 303 301 298 294 289 286 283 281 279 278 278 279 278 273 272 271 270 269 268 268 268 268 268 268 270 270 270
299 299 300 302 303 303 302 303 305 306 306 306 306 306 307 307 306 304 303 301 296 290 285 282 280 279 278 278 277 273 271 271 270 270 269 268 268 268 268 269 268 269 269 270
293 294 295 298 298 299 300 299 298 299 300 301 302 303 303 303 304 303 302 301 299 289 284 281 280 279 277 276 272 270 270 271 270 269 269 268 268 268 268 268 266 267 268 268
Wind_Speed
9 9 16 19 20 22 22 21 22 25 7 11 19 22 25 23 20 22 22 22 21 20 18 23 26 28 28 29 30 30 29 26 24 21 18 14 14 12 10 9 9 7 5 5
6 17 22 19 13 16 20 22 26 23 7 7 17 22 22 22 24 24 23 21 20 16 15 15 24 28 29 30 30 30 29 28 26 22 20 11 13 13 10 11 10 7 6 4
22 18 1 5 15 15 19 21 22 21 8 12 13 16 16 13 18 19 19 23 18 17 14 15 18 28 29 31 34 34 33 32 30 25 21 14 12 11 12 12 9 7 6 8
18 19 20 19 20 18 20 16 19 19 11 11 3 14 12 15 17 14 17 21 16 12 11 12 16 25 31 32 32 34 34 33 31 29 24 23 20 14 14 11 9 7 8 10
12 8 7 14 23 11 12 3 4 9 13 17 14 13 15 7 9 13 17 21 17 5 8 13 16 24 27 30 33 34 33 33 31 31 27 26 21 17 13 11 9 10 10 11
19 2 5 5 3 3 5 3 5 5 7 11 17 18 8 8 5 5 11 17 4 5 8 12 17 21 23 27 30 31 33 31 31 31 31 27 23 19 15 13 11 10 9 9
12 23 6 4 6 4 8 6 6 8 7 17 14 14 16 9 13 14 21 21 3 7 10 13 16 16 22 25 29 30 34 35 34 33 31 28 25 22 19 16 13 12 10 10
8 10 18 14 18 6 14 11 6 13 15 25 3 14 11 13 15 14 16 9 3 8 9 12 14 16 22 27 30 32 35 36 36 34 32 29 26 23 20 18 15 12 12 12
8 12 3 6 2 6 8 7 3 8 1 9 14 21 15 7 11 17 7 5 9 12 13 14 14 17 21 26 32 36 35 35 36 35 33 31 28 25 22 19 16 15 14 14
8 14 8 5 3 3 6 2 5 4 7 17 27 22 14 15 17 11 8 9 11 8 10 11 12 15 21 26 29 32 33 35 35 34 33 32 29 27 23 20 20 17 14 14
9 9 6 6 11 15 5 6 6 3 7 11 19 12 7 8 5 8 8 7 7 3 7 10 11 17 22 23 26 28 31 32 34 35 33 31 30 27 23 21 19 17 15 14
7 3 11 23 4 3 8 21 18 9 13 8 13 27 7 1 3 4 6 6 6 7 8 10 12 16 20 24 25 27 28 31 35 35 33 31 29 29 25 23 18 16 15 15
7 3 5 11 8 4 8 13 11 17 15 26 16 23 13 18 14 3 6 9 9 11 13 14 10 13 14 22 25 27 28 32 33 33 33 30 28 27 25 21 19 18 16 14
9 8 13 20 22 5 12 19 17 19 16 25 27 29 39 31 27 27 20 22 17 18 16 15 11 15 15 22 25 26 27 31 32 33 32 30 28 27 24 21 20 17 14 13
3 17 21 28 33 34 27 19 15 24 27 22 32 22 26 31 30 29 22 26 25 26 22 16 15 16 15 18 23 25 27 32 34 33 31 29 27 26 23 21 17 14 12 10
8 11 19 24 30 30 29 27 32 30 25 29 28 31 29 38 36 33 33 31 23 25 20 17 14 12 12 16 24 27 29 32 34 33 30 28 28 26 23 17 14 11 10 10
7 7 11 19 25 24 21 36 34 35 40 34 30 39 39 37 31 29 32 24 22 20 20 17 16 11 12 20 27 29 30 30 30 28 27 27 28 26 20 16 13 12 11 10
11 19 11 9 9 18 22 21 30 36 37 37 29 30 33 31 32 20 25 19 22 17 19 17 12 10 13 16 21 24 29 31 32 30 31 31 30 25 21 17 15 13 9 8
23 18 10 9 16 16 11 22 23 21 33 25 29 34 35 31 20 24 27 16 19 20 12 3 7 2 10 17 22 25 26 27 28 28 28 26 27 25 21 18 15 10 8 7
30 22 18 11 9 17 18 27 25 21 12 22 25 27 26 24 11 17 23 8 10 6 4 6 12 15 19 20 27 25 24 28 27 26 25 25 25 25 20 16 13 9 7 7
10 15 23 22 20 12 12 15 8 22 19 31 27 27 28 20 17 20 6 3 4 6 8 8 12 11 16 24 30 28 28 20 21 23 24 23 21 22 18 15 11 9 7 6
21 11 12 12 17 23 14 20 26 25 21 19 20 20 17 17 17 16 15 8 9 9 7 12 9 11 18 24 26 23 25 29 30 31 29 24 21 19 18 16 11 9 7 3
23 21 18 18 15 10 7 20 22 24 28 26 23 22 15 7 9 7 9 9 10 9 7 11 10 14 19 24 27 23 27 37 36 31 25 25 22 17 16 15 12 10 6 3
7 14 7 15 10 18 23 23 17 22 16 13 11 12 12 9 10 9 6 8 7 8 10 14 13 12 14 25 25 27 31 36 38 32 27 23 20 16 14 11 9 8 7 4
16 19 21 25 19 21 18 17 16 11 14 18 17 15 16 16 17 16 16 15 9 9 10 17 13 13 16 27 27 31 33 36 29 27 25 22 19 18 15 11 10 9 7 5
18 23 18 20 27 20 21 19 19 18 17 17 17 18 19 17 18 17 13 14 11 10 11 13 15 18 24 28 29 31 37 38 33 26 24 23 21 18 16 13 9 7 7 5
Wind_Direction
199 222 231 238 230 251 275 282 278 273 266 213 241 253 264 278 275 273 270 272 259 254 250 210 213 210 200 199 198 197 195 193 188 187 185 200 204 204 206 208 217 224 231 273
206 232 249 270 286 272 263 263 269 275 273 208 267 267 267 271 268 266 274 272 266 267 239 198 205 202 197 195 197 197 199 196 195 194 197 198 200 207 205 209 216 220 234 264
239 250 81 253 251 251 249 252 261 263 273 220 273 272 258 248 252 260 267 263 266 260 245 195 196 194 196 199 197 197 198 196 195 193 191 191 185 195 204 215 220 218 220 245
254 262 265 265 255 256 262 268 253 266 273 265 157 285 273 286 267 240 265 276 270 249 228 195 189 195 198 201 200 199 200 197 195 193 191 195 198 196 206 191 187 206 235 250
227 226 218 232 245 255 250 341 258 253 256 277 263 269 271 224 265 250 247 261 276 294 182 195 189 197 199 198 199 199 200 199 195 193 197 198 202 202 189 188 201 223 237 250
256 98 233 244 109 224 114 256 243 232 260 253 253 239 281 234 205 238 256 262 201 146 180 193 189 193 199 197 199 197 199 202 198 195 198 201 201 196 194 199 211 222 236 251
225 227 199 177 204 171 201 212 270 248 228 262 270 263 265 278 254 239 257 265 122 162 181 184 181 188 194 195 195 197 200 204 200 198 200 200 199 200 200 200 211 222 234 245
238 245 198 191 218 250 197 215 220 273 270 284 240 265 255 250 239 239 253 261 246 188 192 193 193 192 194 193 196 198 204 204 202 199 198 197 196 197 198 202 209 221 232 243
220 247 131 185 156 191 161 204 293 272 215 280 268 259 255 168 199 228 229 219 235 221 212 208 206 199 199 196 200 202 204 206 204 200 195 194 192 191 192 198 205 217 228 239
246 266 177 141 164 215 229 110 179 214 275 266 279 281 269 265 235 222 231 236 258 218 208 212 212 203 204 207 205 205 206 205 203 198 195 191 188 189 192 195 203 211 220 231
243 221 223 145 203 207 185 222 222 287 240 258 278 273 74 111 148 177 215 228 249 214 207 217 205 208 210 210 205 208 207 203 201 197 193 188 184 186 190 196 205 211 218 226
213 279 234 240 276 332 265 232 217 221 226 231 251 273 70 212 252 148 155 200 210 212 225 234 211 206 203 209 208 208 205 202 201 195 191 187 180 183 188 197 201 208 217 228
170 217 244 264 244 167 225 228 244 241 252 245 239 256 177 253 264 224 215 222 228 235 244 246 209 204 210 210 205 205 203 202 196 191 188 184 180 182 187 193 198 210 220 230
161 204 232 240 245 246 216 228 225 229 236 246 242 259 275 268 275 276 278 275 277 266 248 255 220 222 211 207 203 202 199 195 190 186 185 180 180 182 184 192 201 210 219 230
244 244 240 245 259 262 268 268 219 225 236 242 258 251 260 276 272 276 282 283 285 286 278 266 237 237 216 204 200 200 196 189 184 181 183 178 176 180 184 194 201 207 220 236
203 249 248 256 253 258 260 260 254 255 247 247 251 265 259 261 273 276 276 279 288 284 280 267 260 248 204 201 197 192 189 184 178 180 181 173 170 176 184 191 194 202 221 236
196 217 226 241 241 248 252 241 247 255 258 252 253 252 259 266 258 265 275 282 276 279 286 283 275 255 209 201 189 187 182 173 175 176 171 165 172 178 179 184 194 206 220 234
200 214 221 241 223 232 235 244 234 241 249 256 247 254 258 260 271 277 272 273 276 274 277 278 277 261 203 191 182 173 169 170 172 170 165 172 173 171 173 182 194 203 210 232
214 216 231 227 226 245 210 226 222 227 242 250 252 252 255 266 269 270 266 259 256 260 269 1 8 25 151 161 163 159 162 169 172 173 168 165 169 168 172 182 191 194 202 227
222 219 227 217 231 238 233 236 251 250 253 252 244 252 255 254 242 255 259 210 234 146 188 173 155 151 148 158 153 156 171 173 177 171 165 167 169 173 175 180 186 194 205 234
201 223 224 229 243 245 228 241 247 237 247 234 244 249 257 257 248 257 133 197 190 187 184 168 152 162 166 157 160 159 163 181 171 154 155 162 166 169 171 175 180 191 207 224
224 206 218 233 244 249 215 234 230 238 245 251 251 254 258 260 258 252 253 200 194 203 192 170 159 159 158 164 165 164 163 161 155 157 159 163 167 167 170 174 178 184 198 220
245 254 260 236 243 232 196 227 249 248 253 259 268 275 281 280 275 250 232 220 214 197 190 176 164 156 168 173 173 169 164 152 152 153 155 162 165 166 172 171 172 172 172 185
288 303 332 333 2 331 321 311 303 309 321 328 343 341 340 308 312 296 281 248 217 189 187 172 166 171 175 178 181 170 159 155 154 150 155 159 160 163 167 171 174 167 161 168
280 294 282 287 276 286 291 298 304 294 299 304 311 304 300 302 291 278 275 265 234 205 183 179 181 181 178 173 171 160 157 156 150 148 149 153 160 160 165 171 173 172 162 181
272 275 276 279 291 289 293 324 332 322 303 300 294 294 291 280 272 266 253 250 239 206 183 185 186 178 173 169 160 158 160 159 153 151 152 156 158 162 164 160 160 174 170 162